Voltar ao catálogo

STARLINK-31592

AtivoComunicaçõesVLEO
NORAD 59467·PAYLOAD·🇺🇸 United States

Lançado Apr 10, 2024 de Cape Canaveral Space Force Station

Loading…

Próximas Passagens (próximas 24 horas)

TLE

AtualizadoSource: CelesTrak SupGP

Época: Sep 14, 2026, 22:17 UTC

1 59467C 24068N   26257.92895833  .00050894  00000+0  18437-2 0  2577
2 59467  43.0043  46.0595 0001776 276.4546   0.7878 15.27546277    18

Acompanhe STARLINK-31592 em tempo real com AllMySat

Download on the App Store